Regional Weather Roundup
Issued by NWS

Home | Current Version | Previous Version | Text Only | Print | Product List | Glossary On
Versions: 1 2 3 4 5 6 7 8 9 10 11 12 13 14 15 16 17 18 19 20 21 22 23 24 25 26 27 28 29 30 31 32 33 34 35 36 37 38 39 40 41 42 43 44 45 46 47 48 49 50
000
ASUS46 KLOX 011113
RWRCA

SOUTHERN CALIFORNIA WEATHER ROUNDUP
NATIONAL WEATHER SERVICE OXNARD CALIFORNIA
400 AM PDT SAT AUG 01 2015

NOTE: "FAIR" INDICATES FEW OR NO CLOUDS BELOW 12,000 FEET WITH NO
SIGNIFICANT WEATHER AND/OR OBSTRUCTIONS TO VISIBILITY.

  -  STATIONS PRECEEDED BY AN ASTERISK (*) ARE NOT NWS OR FAA
     STATIONS AND ARE NOT SUBJECT TO NWS AND FAA QUALITY CONTROL.

CAZ041-042-087-011200-
LA AND ORANGE COUNTY COASTAL AREAS


CITY           SKY/WX    TMP DP  RH WIND       PRES   REMARKS
L.A. DOWNTOWN  CLOUDY    68  64  87 CALM      29.96S
L.A. AIRPORT   CLOUDY    67  65  93 W6        29.97S FOG
LONG BEACH     CLOUDY    70  66  87 CALM      29.95F FOG

CITY           SKY/WX    TMP DP  RH WIND       PRES   REMARKS
AVALON           N/A     64 N/A N/A MISG        N/A
FULLERTON      CLOUDY    71  65  81 CALM      29.95S
*GETTY CENTER    N/A     61  61 100 SW3         N/A
HAWTHORNE      CLOUDY    69  64  84 VRB3      29.96F
*LOS ALAMITOS  CLOUDY    69  67  95 E2        29.95F
*REDONDO BEACH   N/A     67  65  90 CALM      29.96F
SANTA ANA      CLOUDY    69  66  90 VRB5      29.95F
STA MONICA APT CLOUDY    68  64  87 SW6       29.97S

$$

CAZ547-548-048-011200-
LA COUNTY VALLEYS AND INLAND EMPIRE


CITY           SKY/WX    TMP DP  RH WIND       PRES   REMARKS
BURBANK        CLOUDY    68  64  87 SE6       29.96F
VAN NUYS       CLEAR     68  63  84 SE5       29.96F

CITY           SKY/WX    TMP DP  RH WIND       PRES   REMARKS
CORONA AIRPORT MOSUNNY   67  65  93 CALM      29.97S
CHINO          CLEAR     69  64  84 W6        29.97F
MARCH AFB      PTCLDY    67  64  91 NW3       29.98F
ONTARIO        PTCLDY    69  64  84 SW5       29.97F
*PASADENA        N/A     66  64  94 CALM        N/A
RIVERSIDE      PTCLDY    70  64  81 W5        29.97S
SAN BERNARDINO NOT AVBL
*WHITEMAN AP   NOT AVBL
*WOODLAND HILL   N/A     66  61  82 E1          N/A

$$

CAZ054-055-011200-
LA AND SAN BERNARDINO COUNTY MOUNTAINS


CITY           SKY/WX    TMP DP  RH WIND       PRES   REMARKS
*BIG BEAR AIRP MOSUNNY   46  37  71 CALM      30.31F
SANDBERG       CLEAR     70  49  47 W9        30.16F

$$

CAZ028-029-059-060-099-011200-
ANTELOPE VALLEY AND SURROUNDING AREAS


CITY           SKY/WX    TMP DP  RH WIND       PRES   REMARKS
LANCASTER      PTCLDY    74  47  38 W10       30.00F
PALMDALE       PTCLDY    72  42  34 W8        30.02S

CITY           SKY/WX    TMP DP  RH WIND       PRES   REMARKS
29 PALMS       PTCLDY    79  55  43 W5        30.01S
BARSTOW/DAGGET PTCLDY    80  53  39 W13       29.96S
BISHOP         PTCLDY    65  45  48 NW6       30.09S
CHINA LAKE     PTCLDY    80  53  39 S9        29.95S
EDWARDS AFB    MOCLDY    73  44  35 S7        29.98S
MOJAVE         CLEAR     79  54  41 SW8       30.02R
NEEDLES        CLOUDY    92  60  34 SW8       29.86S HX  91
VICTORVILLE    PTCLDY    72  52  49 CALM      30.04S

$$

CAZ039-040-011200-
VENTURA AND SANTA BARBARA COUNTY COAST


CITY           SKY/WX    TMP DP  RH WIND       PRES   REMARKS
CAMARILLO      CLOUDY    67  63  87 CALM      29.95S FOG
OXNARD AIRPORT CLOUDY    66  64  93 NW3       29.95S
*POINT MUGU    CLOUDY    69  65  86 CALM      29.96R
SBA APT/GOLETA MOCLDY    66  64  93 SE6       29.93S
*SANTA BARBARA   N/A     67  62  84 CALM      30.02S
*VENTURA         N/A     65  62  90 CALM      29.56S

$$

CAZ044-045-011200-
VENTURA COUNTY VALLEYS


CITY           SKY/WX    TMP DP  RH WIND       PRES   REMARKS
*SIMI VALLEY     N/A     65  61  88 CALM      29.89S
*OJAI            N/A     59  56  91 CALM      29.89S
*FILLMORE        N/A     62  57  86 CALM      29.85S

$$

CAZ053-011200-
VENTURA COUNTY MOUNTAINS


CITY           SKY/WX    TMP DP  RH WIND       PRES   REMARKS

$$

CAZ034-035-036-011200-
CENTRAL COAST AND SANTA YNEZ VALLEY


CITY           SKY/WX    TMP DP  RH WIND       PRES   REMARKS
SAN LUIS OBISP CLOUDY    63  59  87 NW9       29.99S
SANTA MARIA    CLOUDY    62  60  93 NW3       29.99S

CITY           SKY/WX    TMP DP  RH WIND       PRES   REMARKS
*CAL POLY SLO    N/A    N/A N/A N/A W3          N/A
*LOMPOC        CLOUDY    63  55  77 CALM      30.00S
*PISMO BEACH     N/A     62  60  93 CALM      29.99F
*SANTA YNEZ    CLOUDY    57  55  94 CALM      29.99S FOG

$$

CAZ037-038-051-011200-
SAN LUIS OBISPO COUNTY INTERIOR AND CUYAMA VALLEY


CITY           SKY/WX    TMP DP  RH WIND       PRES   REMARKS
*CUYAMA          N/A     64  54  68 CALM      29.89S
PASO ROBLES    CLEAR     62  56  80 NW3       29.99S

$$

CAZ032-033-061-011200-
SOUTHERN DESERTS


CITY           SKY/WX    TMP DP  RH WIND       PRES   REMARKS
BLYTHE         PTCLDY    87  64  46 CALM      29.85R
IMPERIAL       CLEAR     83  50  31 CALM      29.79S
PALM SPRINGS   PTCLDY    83  62  49 CALM      29.84F
THERMAL        PTCLDY    84  60  44 CALM      29.78R

$$

ELSEWHERE ACROSS THE WESTERN UNITED STATES AND MEXICO


CITY           SKY/WX    TMP DP  RH WIND       PRES   REMARKS
DENVER, CO     PTCLDY    63  52  67 S10       30.19F
GRAND CANYON,  CLOUDY    61  54  77 CALM      30.31F
HONOLULU, HI   PTCLDY    81  70  69 NE6       29.98F
KAHULUI, MAUI  CLEAR     79  70  73 NE12      29.99F
LAKE TAHOE, CA PTCLDY    54  42  64 CALM      30.27S
LAS VEGAS, NV  CLOUDY    91  52  26 SW5       29.89S
MAMMOTH LAKES, FAIR      54  41  62 N3        30.34S
MEXICO CITY, M PTCLDY    57  48  72 E3        30.34R
PHOENIX, AZ    CLOUDY    82  70  66 NW3       29.89F
PORTLAND, OR   CLEAR     68  48  48 N5        29.96S
RENO, NV       CLOUDY    68  43  40 CALM      30.12S
SALT LAKE CITY PTCLDY    66  35  31 SE10      30.10R
SAN DIEGO, CA  CLOUDY    70  63  78 W5        29.97F
SAN FRANCISCO, PTCLDY    62  56  80 W6        29.98S
SAN JOSE, CA   PTCLDY    63  58  83 E3        29.98S
SEATTLE, WA    CLEAR     69  40  34 NE5       30.00S
TIJUANA, MEX   CLOUDY    68  61  77 W5        29.99S

$$

STATION/POSITION TIME  TEMP    WIND        PRES    VSBY  WAVE
                       AIR SEA DIR/SP/G                  HT/PER
                 (UTC) (F)     (DEG/KT/KT) (MB)    (MI)  (FT/S)
POINT ARGUELLO B NOT AVBL
WEST SANTA BARBA 1050   63 65  320/ 19/ 23 1013.3R         4/16
POINT CONCEPTION NOT AVBL
EAST SANTA BARBA 1100   65 69  220/ 10/ 12 1014.3R
SANTA MONICA BAY 1050   68 74  200/  2/  4 1014.5S         3/14



USA.gov is the U.S. government's official web portal to all federal, state and local government web resources and services.